Location: New Plymouth
(39.0670°S, 174.0830°E)
Time: 22:24:10
(UTC+13:00)

Cosmos 1741 Rocket - Pass Details

Date: 24 January 2019
Orbit: 761 x 783 km, 74.0° (Epoch: 15 October)

Event Time Altitude Azimuth Distance (km) Brightness Sun altitude
Rises 21:18:07 0° 341° (NNW) 3,253 7.1 -6.3°
Reaches altitude 10° 21:20:28 10° 341° (NNW) 2,336 6.4 -6.7°
Maximum altitude 21:25:48 84° 252° (WSW) 800 4.2 -7.5°
Drops below altitude 10° 21:31:14 10° 163° (SSE) 2,372 6.8 -8.4°
Sets 21:33:39 0° 161° (SSE) 3,308 7.5 -8.8°
